STARLINK-32541, 61916

Orbit data source: Space-Track

STARLINK-32541, 61916 is a payload satellite owned by SpaceX/Seattle (US) in LEO that was launched on Mon, 11 Nov 2024 UTC via an FALCON 9 launch vehicle from the Air Force Eastern Test Range (AFETR). Payload-class satellites include a variety of spacecraft equipped with specific instruments for various scientific and technological missions. These include communications satellites like Starlink; space stations such as the ISS; scientific satellites like the Hubble; Earth observation satellites from companies like Planet Labs, Umbra, and HawkEye 360; GPS; miniature CubeSats for education and research; and military/defense satellites.

Loading next visibility...
Identifier
61916, 2024-207E
Orbit
LEO
Country
Flag of USUS
Related business
Manufacturer
SpaceX/Seattle
Mission
Operational Commercial Communications
Bus & Motor
STARLINK V2M, Unknown motor
Mass
730 kg wet, ~700 kg dry
Launch date (UTC)
2024-11-11 (2 years ago)
Launch vehicle
FALCON 9
Launch site
Air Force Eastern Test Range (AFETR)
Object type
Payload
Rocket body
Debris
Shape & HBR
Box + 2 Pan, 17.7 m
Radar Cross Section
33.884 m², Large (>1 m²)

Expand to show TLE details & history
Last TLE update: 23 hours ago

TLE from 23 hours ago
0 STARLINK-32541
1 61916U 24207E   26206.42407023  .00025800  00000-0  94364-3 0  9990
2 61916  42.9990 227.6206 0001555 271.8552  88.2121 15.27585487 95748
Epoch: 2026-07-25T10:10Z
TLE epoch observation values (Epoch: 2026-07-25T10:10:39.667Z)
Latitude
-0.00007°
Longitude
131.81869°
Altitude
482.775 km
Speed
7.626 km/s
True Right ascension
15h 10m 28s
True Declination
0° 00' 00"
Sunlit
Object was in daylight at epoch
Visualization orbit readout
Latitude
Unknown
Longitude
Unknown
Altitude
Unknown
Speed
Unknown
Apparent Right ascension
Unknown
Apparent Declination
Unknown
Sunlit
N/A
Visualization observer readout
Local Sidereal Time
22:17:20
Azimuth
Unknown
Elevation
Unknown
Doppler factor
Unknown
Orbital elements
Apogee altitude
486.045 km
Perigee altitude
483.911 km
Semi-major axis
6,863.115 km
Eccentricity
0.00016
Inclination
42.999°
RAAN
227.6206°
Arg. of periapsis
271.8552°
True anomaly
88.22991°
Mean anomaly
88.2121°
Eccentric anomaly
88.22101°
Mean motion
3.81734 °/min
Orbital period
94.31 mins
BSTAR
0.00094364
Loading maneuver chart data...
Computing Atmospheric mass density...
Loading historical data...
Loading historical data...
Loading historical data...
Loading historical data...
Loading historical data...
Loading historical data...
Loading historical data...

Documentation

Showing up to 5 results
|